This demonstration page uses our WeatherBlox Daily Observations layout. Learn more.

Hourly Observations for May 31, 2016

Temp ( °F °C ) Dew Point ( °F °C ) Humidity (%) Winds ( mph kmh ) Pressure ( in mb ) Visibility ( mi km ) Precip ( " mm )
12:15 am 00:15 Partly Cloudy with Light Rain 60 15.4 55 12.6 84 84 W 13 20 29.83 1010 10 16.0934 0.02 0.508
12:35 am 00:35 Clear 60 15.5 54 12.1 80 80 WNW 5 7 29.83 1010 10 16.0934 0.02 0.508
12:55 am 00:55 Clear 59 15 55 12.5 85 85 WNW 3 6 29.88 1012 10 16.0934 0.02 0.508
1:15 am 01:15 Clear 59 15 55 13 88 88 SSW 5 7 29.83 1010 10 16.0934 0 0
1:35 am 01:35 Clear 59 15.2 55 12.6 85 85 SSW 5 7 29.83 1010 10 16.0934 0 0
1:55 am 01:55 Clear 59 14.9 55 12.7 87 87 SW 9 15 29.83 1010 10 16.0934 0 0
2:15 am 02:15 Clear 59 14.8 55 12.7 87 87 SW 5 7 29.88 1012 10 16.0934 0 0
2:35 am 02:35 Clear 59 14.8 55 12.5 86 86 NNW 9 15 29.91 1013 10 16.0934 0 0
2:55 am 02:55 Clear 58 14.7 55 12.7 88 88 NW 3 6 29.91 1013 10 16.0934 0 0
3:15 am 03:15 Clear 58 14.7 55 12.9 89 89 NW 6 9 29.91 1013 10 16.0934 0 0
3:35 am 03:35 Clear 58 14.5 55 12.7 89 89 NW 7 11 29.91 1013 10 16.0934 0 0
3:55 am 03:55 Clear 58 14.7 55 12.6 87 87 NW 6 9 29.91 1013 10 16.0934 0 0
4:15 am 04:15 Clear 58 14.7 55 12.5 87 87 NNW 7 11 29.94 1014 10 16.0934 0 0
4:35 am 04:35 Clear 59 14.8 55 12.5 86 86 N 8 13 29.94 1014 10 16.0934 0 0
4:55 am 04:55 Clear 58 14.6 54 12.4 87 87 NNW 9 15 29.94 1014 10 16.0934 0 0
5:15 am 05:15 Clear 58 14.6 54 12.3 86 86 N 9 15 29.94 1014 10 16.0934 0 0
5:35 am 05:35 Clear 58 14.6 54 12.3 86 86 N 7 11 29.94 1014 10 16.0934 0 0
5:55 am 05:55 Clear 58 14.5 54 12.2 86 86 N 7 11 29.97 1015 10 16.0934 0 0
6:15 am 06:15 Sunny 57 14 54 12.1 88 88 N 8 13 29.97 1015 10 16.0934 0 0
6:35 am 06:35 Sunny 57 13.9 54 12 88 88 N 12 19 29.97 1015 10 16.0934 0 0
6:55 am 06:55 Sunny 57 13.8 54 12 89 89 N 8 13 29.97 1015 10 16.0934 0 0
7:15 am 07:15 Sunny 57 13.8 53 11.8 88 88 N 9 15 29.97 1015 10 16.0934 0 0
7:35 am 07:35 Sunny 57 14 52 11 82 82 N 13 20 29.97 1015 10 16.0934 0 0
7:55 am 07:55 Sunny 57 14 51 10.5 80 80 N 12 19 30 1016 10 16.0934 0 0
8:15 am 08:15 Sunny 58 14.5 50 10.2 76 76 N 15 24 30 1016 10 16.0934 0 0
8:35 am 08:35 Sunny 58 14.5 50 9.9 74 74 N 16 26 30 1016 10 16.0934 0 0
8:55 am 08:55 Sunny 58 14.5 49 9.6 73 73 N 17 28 30 1016 10 16.0934 0 0
9:15 am 09:15 Sunny 59 15 49 9.5 70 70 N 16 26 30 1016 10 16.0934 0 0
9:35 am 09:35 Sunny 59 14.8 49 9.4 70 70 N 14 22 30 1016 10 16.0934 0 0
9:55 am 09:55 Sunny 60 15.3 49 9.4 68 68 N 16 26 30.03 1017 10 16.0934 0 0
10:15 am 10:15 Sunny 60 15.4 49 9.2 67 67 N 14 22 30.03 1017 10 16.0934 0 0
10:35 am 10:35 Sunny 62 16.7 49 9.7 64 64 N 10 17 30 1016 10 16.0934 0 0
10:55 am 10:55 Sunny 63 17.2 49 9.7 62 62 N 15 24 30 1016 10 16.0934 0 0
11:15 am 11:15 Sunny 64 17.6 49 9.5 59 59 N 14 22 30 1016 10 16.0934 0 0
11:35 am 11:35 Sunny 64 18 48 9 56 56 N 14 22 29.97 1015 10 16.0934 0 0
11:55 am 11:55 Sunny 65 18.5 48 9 54 54 N 16 26 29.97 1015 10 16.0934 0 0
12:15 pm 12:15 Sunny 66 19 49 9.4 54 54 NNW 12 19 29.97 1015 10 16.0934 0 0
12:35 pm 12:35 Sunny 66 19.1 49 9.6 54 54 N 13 20 29.97 1015 10 16.0934 0 0
12:55 pm 12:55 Sunny 67 19.5 48 8.8 50 50 N 12 19 29.97 1015 10 16.0934 0 0
1:15 pm 13:15 Sunny 67 19.6 48 8.8 50 50 N 10 17 29.97 1015 10 16.0934 0 0
1:35 pm 13:35 Sunny 67 19.6 46 7.7 46 46 N 12 19 29.97 1015 10 16.0934 0 0
1:55 pm 13:55 Sunny 68 20.1 45 7.3 44 44 N 9 15 29.94 1014 10 16.0934 0 0
2:15 pm 14:15 Sunny 69 20.5 44 6.9 41 41 NNE 9 15 29.91 1013 10 16.0934 0 0
2:35 pm 14:35 Sunny 69 20.8 42 5.8 38 38 N 12 19 29.91 1013 10 16.0934 0 0
2:55 pm 14:55 Sunny 70 21 43 6 38 38 NNE 7 11 29.91 1013 10 16.0934 0 0
3:15 pm 15:15 Sunny 70 21.2 39 4.1 33 33 NNW 10 17 29.91 1013 10 16.0934 0 0
3:35 pm 15:35 Sunny 70 21.2 40 4.7 34 34 N 6 9 29.91 1013 10 16.0934 0 0
3:55 pm 15:55 Sunny 71 21.4 42 5.5 36 36 NNW 6 9 29.91 1013 10 16.0934 0 0
4:15 pm 16:15 Sunny 71 21.7 41 5 34 34 N 5 7 29.91 1013 10 16.0934 0 0
4:35 pm 16:35 Sunny 71 21.7 42 5.3 34 34 N 5 7 29.88 1012 10 16.0934 0 0
4:55 pm 16:55 Sunny 71 21.6 43 6.2 37 37 Calm 29.88 1012 10 16.0934 0 0
5:15 pm 17:15 Sunny 71 21.8 44 6.8 38 38 N 6 9 29.88 1012 10 16.0934 0 0
5:35 pm 17:35 Sunny 71 21.9 44 6.5 37 37 NNE 3 6 29.88 1012 10 16.0934 0 0
5:55 pm 17:55 Sunny 71 21.6 45 7.2 40 40 NE 5 7 29.88 1012 10 16.0934 0 0
6:15 pm 18:15 Sunny 71 21.6 45 7 39 39 Calm 29.88 1012 10 16.0934 0 0
6:35 pm 18:35 Sunny 71 21.5 45 7.1 39 39 NW 3 6 29.88 1012 10 16.0934 0 0
7:15 pm 19:15 Sunny 71 21.8 43 6.3 37 37 Calm 29.88 1012 10 16.0934 0 0
7:35 pm 19:35 Sunny 71 21.5 44 6.4 38 38 Calm 29.91 1013 10 16.0934 0 0
7:55 pm 19:55 Sunny 70 21.3 44 6.7 39 39 Calm 29.91 1013 10 16.0934 0 0
8:15 pm 20:15 Hazy 70 20.9 46 8 44 44 Calm 29.91 1013 5 8.0467 0 0
8:35 pm 20:35 Sunny 69 20.5 46 7.7 44 44 Calm 29.91 1013 10 16.0934 0 0
8:55 pm 20:55 Sunny 67 19.6 48 8.9 50 50 SW 3 6 29.91 1013 10 16.0934 0 0
9:15 pm 21:15 Clear 66 18.7 49 9.6 56 56 SW 3 6 29.97 1015 10 16.0934 0 0
9:35 pm 21:35 Clear 65 18.4 50 10 58 58 SW 3 6 29.97 1015 10 16.0934 0 0
9:55 pm 21:55 Clear 64 17.6 50 10.2 62 62 Calm 29.97 1015 10 16.0934 0 0
10:15 pm 22:15 Clear 61 16.1 51 10.7 71 71 Calm 30 1016 10 16.0934 0 0
10:35 pm 22:35 Clear 61 16.2 50 9.9 66 66 Calm 30.03 1017 10 16.0934 0 0
10:55 pm 22:55 Clear 63 17.2 49 9.6 61 61 Calm 30 1016 10 16.0934 0 0
11:15 pm 23:15 Clear 62 16.7 50 10 65 65 SW 6 9 30 1016 10 16.0934 0 0
11:35 pm 23:35 Clear 62 16.5 49 9.5 64 64 SW 5 7 30.03 1017 10 16.0934 0 0
11:55 pm 23:55 Clear 60 15.5 49 9.5 68 68 Calm 30.03 1017 10 16.0934 0 0

Powered by AerisWeather